PLF120 EPPO-EPKK

Flight info

Callsign PLF120
Flight time N/A
Altitude 35000
Route OBOKU DCT POLON N133 NUBLI DCT KUKAM
Aircraft B738/M-SDE2E3FGHIRWXY/LB1

Departure

Time 2026-05-04 19:45
Airport Poznań-Ławica Airport (EPPO)

Arrival

Time N/A
Airport Kraków John Paul II International Airport (EPKK)
Time Latitude Longitude Altitude Speed Heading
2026-05-04 19:14 52.41590 16.82662 291 ft 0 kts 183°
2026-05-04 19:35 52.41591 16.82662 287 ft 2 kts 183°
2026-05-04 19:36 52.41617 16.82664 287 ft 4 kts 181°
2026-05-04 19:36 52.41643 16.82663 295 ft 4 kts 171°
2026-05-04 19:36 52.41667 16.82650 288 ft 4 kts 131°
2026-05-04 19:36 52.41673 16.82635 287 ft 0 kts 93°
2026-05-04 19:40 52.41673 16.82637 287 ft 1 kts 93°
2026-05-04 19:40 52.41672 16.82665 290 ft 5 kts 93°
2026-05-04 19:40 52.41669 16.82747 293 ft 10 kts 94°
2026-05-04 19:41 52.41659 16.82884 287 ft 14 kts 102°
2026-05-04 19:41 52.41634 16.83065 287 ft 18 kts 103°
2026-05-04 19:41 52.41604 16.83282 287 ft 21 kts 102°
2026-05-04 19:41 52.41572 16.83521 287 ft 21 kts 100°
2026-05-04 19:42 52.41562 16.83757 287 ft 17 kts 92°
2026-05-04 19:42 52.41578 16.83899 289 ft 12 kts 53°
2026-05-04 19:42 52.41637 16.83986 287 ft 11 kts 22°
2026-05-04 19:42 52.41708 16.84027 287 ft 8 kts 20°
2026-05-04 19:43 52.41714 16.84031 287 ft 0 kts 20°
2026-05-04 19:44 52.41724 16.84036 287 ft 4 kts 20°
2026-05-04 19:44 52.41766 16.84062 288 ft 9 kts 20°
2026-05-04 19:44 52.41834 16.84019 288 ft 14 kts 299°
2026-05-04 19:44 52.41844 16.83973 292 ft 0 kts 288°
2026-05-04 19:45 52.41849 16.83948 291 ft 14 kts 288°
2026-05-04 19:45 52.41967 16.83337 287 ft 98 kts 287°
2026-05-04 19:45 52.42251 16.81890 321 ft 163 kts 288°
2026-05-04 19:45 52.42586 16.80161 1283 ft 153 kts 289°
2026-05-04 19:46 52.42903 16.78473 2106 ft 161 kts 289°
2026-05-04 19:46 52.43273 16.76556 2569 ft 194 kts 288°
2026-05-04 19:46 52.43712 16.74282 2849 ft 224 kts 287°
2026-05-04 19:46 52.44197 16.71756 3365 ft 239 kts 287°
2026-05-04 19:47 52.44707 16.69100 4043 ft 248 kts 286°
2026-05-04 19:47 52.45226 16.66398 5044 ft 248 kts 285°
2026-05-04 19:47 52.45771 16.63710 6050 ft 253 kts 292°
2026-05-04 19:47 52.46964 16.61490 6786 ft 272 kts 325°
2026-05-04 19:48 52.48779 16.60477 7692 ft 284 kts 351°
2026-05-04 19:48 52.50746 16.60821 8568 ft 296 kts 15°
2026-05-04 19:48 52.52550 16.62542 9440 ft 308 kts 41°
2026-05-04 19:48 52.53798 16.65432 10236 ft 317 kts 68°
2026-05-04 19:49 52.54208 16.69082 10551 ft 339 kts 95°
2026-05-04 19:49 52.53737 16.72987 10772 ft 361 kts 110°
2026-05-04 19:49 52.52749 16.76881 11018 ft 378 kts 123°
2026-05-04 19:49 52.51226 16.80435 11625 ft 383 kts 132°
2026-05-04 19:50 52.49546 16.83851 12446 ft 385 kts 133°
2026-05-04 19:50 52.47834 16.87262 13272 ft 389 kts 133°
2026-05-04 19:50 52.46127 16.90650 13998 ft 393 kts 133°
2026-05-04 19:50 52.44381 16.94127 14706 ft 396 kts 133°
2026-05-04 19:51 52.42626 16.97638 15422 ft 400 kts 132°
2026-05-04 19:51 52.40864 17.01176 16126 ft 403 kts 132°
2026-05-04 19:51 52.39086 17.04752 16806 ft 406 kts 132°
2026-05-04 19:51 52.37294 17.08362 17473 ft 410 kts 132°
2026-05-04 19:52 52.35486 17.12002 18135 ft 414 kts 131°
2026-05-04 19:52 52.34279 17.14428 18525 ft 417 kts 131°
2026-05-04 19:52 52.32446 17.18113 18908 ft 421 kts 131°
2026-05-04 19:52 52.30593 17.21826 19018 ft 424 kts 132°
2026-05-04 19:53 52.28717 17.25578 19503 ft 428 kts 132°
2026-05-04 19:53 52.26219 17.30569 20348 ft 429 kts 132°
2026-05-04 19:53 52.24318 17.34363 20888 ft 433 kts 132°
2026-05-04 19:53 52.22401 17.38183 21376 ft 437 kts 132°
2026-05-04 19:54 52.21094 17.40783 21693 ft 440 kts 132°
2026-05-04 19:54 52.19169 17.44609 22177 ft 444 kts 132°
2026-05-04 19:54 52.17203 17.48515 22656 ft 448 kts 132°
2026-05-04 19:54 52.15220 17.52445 23136 ft 451 kts 132°
2026-05-04 19:55 52.13220 17.56405 23576 ft 455 kts 132°
2026-05-04 19:55 52.11202 17.60393 23964 ft 458 kts 132°
2026-05-04 19:55 52.09170 17.64403 24361 ft 461 kts 132°
2026-05-04 19:55 52.06462 17.69738 24867 ft 464 kts 132°
2026-05-04 19:56 52.05069 17.72477 25124 ft 466 kts 132°
2026-05-04 19:56 52.02995 17.76551 25492 ft 469 kts 132°
2026-05-04 19:56 52.00941 17.80578 25847 ft 471 kts 132°
2026-05-04 19:56 51.98839 17.84694 26193 ft 474 kts 132°
2026-05-04 19:57 51.96730 17.88815 26545 ft 477 kts 132°
2026-05-04 19:57 51.94604 17.92965 26883 ft 479 kts 132°
2026-05-04 19:57 51.92468 17.97127 27212 ft 482 kts 132°
2026-05-04 19:57 51.90318 18.01307 27538 ft 484 kts 132°
2026-05-04 19:58 51.88161 18.05496 27877 ft 486 kts 132°
2026-05-04 19:58 51.85994 18.09697 28348 ft 485 kts 132°
2026-05-04 19:58 51.83868 18.13815 28848 ft 483 kts 132°
2026-05-04 19:58 51.81719 18.17969 29343 ft 481 kts 132°
2026-05-04 19:59 51.79571 18.22113 29771 ft 481 kts 132°
2026-05-04 19:59 51.77421 18.26254 30185 ft 481 kts 132°
2026-05-04 19:59 51.75275 18.30380 30573 ft 480 kts 132°
2026-05-04 19:59 51.73127 18.34503 30922 ft 480 kts 132°
2026-05-04 20:00 51.70977 18.38623 30921 ft 480 kts 132°
2026-05-04 20:00 51.65992 18.48152 30946 ft 477 kts 132°
2026-05-04 20:01 51.62430 18.54938 30944 ft 477 kts 132°
2026-05-04 20:01 51.58152 18.63064 30943 ft 476 kts 132°
2026-05-04 20:02 51.53868 18.71177 30939 ft 476 kts 132°
2026-05-04 20:02 51.49580 18.79271 30944 ft 476 kts 132°
2026-05-04 20:03 51.45280 18.87360 30774 ft 478 kts 132°
2026-05-04 20:03 51.43114 18.91425 30111 ft 479 kts 132°
2026-05-04 20:03 51.40984 18.95419 29338 ft 477 kts 132°
2026-05-04 20:03 51.38839 18.99434 28661 ft 472 kts 132°
2026-05-04 20:04 51.36726 19.03384 28120 ft 464 kts 132°
2026-05-04 20:04 51.34627 19.07261 27606 ft 456 kts 135°
2026-05-04 20:04 51.32318 19.10614 27338 ft 442 kts 146°
2026-05-04 20:04 51.29766 19.13424 27107 ft 452 kts 148°
2026-05-04 20:05 51.27121 19.16242 26864 ft 462 kts 148°
2026-05-04 20:05 51.24455 19.19074 26345 ft 457 kts 148°
2026-05-04 20:05 51.21872 19.21834 25852 ft 449 kts 148°
2026-05-04 20:05 51.19304 19.24596 25320 ft 443 kts 148°
2026-05-04 20:06 51.16764 19.27339 24805 ft 437 kts 148°
2026-05-04 20:06 51.14263 19.30046 24290 ft 432 kts 148°
2026-05-04 20:06 51.11792 19.32723 23788 ft 428 kts 148°
2026-05-04 20:06 51.09344 19.35372 23212 ft 424 kts 148°
2026-05-04 20:07 51.06920 19.37993 22649 ft 419 kts 148°
2026-05-04 20:07 51.04527 19.40577 22139 ft 413 kts 148°
2026-05-04 20:07 51.02164 19.43125 21631 ft 408 kts 148°
2026-05-04 20:07 50.99864 19.45601 21142 ft 403 kts 148°
2026-05-04 20:08 50.97557 19.48082 20648 ft 398 kts 148°
2026-05-04 20:08 50.95271 19.50537 20170 ft 394 kts 148°
2026-05-04 20:08 50.93013 19.52959 19686 ft 390 kts 148°
2026-05-04 20:08 50.90776 19.55355 19222 ft 387 kts 149°
2026-05-04 20:09 50.88556 19.57731 18755 ft 383 kts 149°
2026-05-04 20:09 50.86358 19.60080 18288 ft 380 kts 149°
2026-05-04 20:09 50.84172 19.62414 17767 ft 377 kts 149°
2026-05-04 20:09 50.82006 19.64723 17262 ft 374 kts 149°
2026-05-04 20:10 50.79859 19.67011 16795 ft 370 kts 149°
2026-05-04 20:10 50.77759 19.69244 16340 ft 369 kts 149°
2026-05-04 20:10 50.75634 19.71501 15881 ft 368 kts 150°
2026-05-04 20:10 50.73497 19.73767 15428 ft 374 kts 150°
2026-05-04 20:11 50.71320 19.76071 14957 ft 378 kts 150°
2026-05-04 20:11 50.69149 19.78371 14480 ft 374 kts 150°
2026-05-04 20:11 50.67003 19.80643 14012 ft 369 kts 150°
2026-05-04 20:11 50.64883 19.82887 13525 ft 365 kts 150°
2026-05-04 20:12 50.62781 19.85108 13015 ft 361 kts 150°
2026-05-04 20:12 50.60733 19.87267 12563 ft 357 kts 149°
2026-05-04 20:12 50.58685 19.89425 12109 ft 352 kts 149°
2026-05-04 20:12 50.56657 19.91560 11661 ft 348 kts 149°
2026-05-04 20:13 50.54652 19.93667 11224 ft 345 kts 149°
2026-05-04 20:13 50.52674 19.95744 10935 ft 337 kts 149°
2026-05-04 20:13 50.50762 19.97753 10797 ft 325 kts 149°
2026-05-04 20:13 50.48913 19.99692 10658 ft 314 kts 149°
2026-05-04 20:14 50.47126 20.01565 10530 ft 305 kts 149°
2026-05-04 20:14 50.45371 20.03400 10410 ft 301 kts 149°
2026-05-04 20:14 50.43662 20.05185 10294 ft 298 kts 149°
2026-05-04 20:14 50.41951 20.06970 10168 ft 292 kts 149°
2026-05-04 20:15 50.40289 20.08704 10048 ft 283 kts 150°
2026-05-04 20:15 50.38672 20.10391 9860 ft 278 kts 150°
2026-05-04 20:15 50.37066 20.12061 9557 ft 276 kts 150°
2026-05-04 20:15 50.36011 20.13159 9385 ft 274 kts 150°
2026-05-04 20:16 50.35370 20.13825 9269 ft 274 kts 150°
2026-05-04 20:16 50.33790 20.15467 8992 ft 271 kts 150°
2026-05-04 20:16 50.32222 20.17096 8694 ft 270 kts 149°
2026-05-04 20:16 50.30657 20.18720 8406 ft 269 kts 149°
2026-05-04 20:17 50.29123 20.20311 8135 ft 268 kts 149°